Location: Arrodets-la-Barthe
(43.0306°N, 0.2829°E)
Time: 16:02:13
(UTC+00:00)

STARLINK-5273 - Pass Details

Date: 27 November 2022
Orbit: 539 x 540 km, 53.2° (Epoch: 02 February)

Event Time Altitude Azimuth Distance (km) Brightness Sun altitude
Exits shadow 05:35:48 20° 238° (WSW) 1,295 ? -16.1°
Maximum altitude 05:36:09 20° 231° (SW) 1,286 ? -16.0°
Drops below altitude 10° 05:39:12 10° 183° (S) 1,808 ? -15.5°
Sets 05:41:50 0° 166° (SSE) 2,693 ? -15.0°
